#timestamp,LO_Frequency,Hit,StdDev 
1526882415.9,286047002.1,N
1526882435.7,286047000.8,N
1526882455.5,286046998.6,N
1526882475.4,286047001.1,N
1526882495.2,286046998.3,N
1526882515.1,286046998.1,N
1526882516.0,286046998.1,N
1526882535.8,286047002.8,N
1526882555.6,286047002.4,N
1526882575.5,286047001.2,N
1526882595.3,286046998.1,N
1526882615.2,286046999.2,N
1526882635.9,286046998.7,N
1526882655.7,286046998.6,N
1526882675.6,286047000.0,N
1526882695.4,286047001.5,N
1526882715.2,286047004.3,N
1526882735.1,286047004.3,N
1526882736.0,286047004.3,N
1526882755.8,286047003.9,N
1526882775.7,286047001.5,N
1526882795.5,286047002.2,N
1526882815.3,286047002.0,N
1526882835.2,286047001.6,N
1526882855.0,286047002.7,N
1526882855.9,286047002.7,N
1526882875.8,286047002.2,N
1526882895.6,286047002.0,N
1526882915.4,286047003.6,N
1526882935.3,286047001.7,N
1526882955.1,286047001.4,N
1526882975.8,286047002.8,N
1526882995.7,286047002.2,N
1526883015.5,286047002.6,N
1526883035.4,286047000.0,N
1526883055.2,286047000.7,N
1526883075.0,286047000.9,N
1526883075.9,286047000.9,N
1526883095.8,286047000.5,N
1526883115.6,286047002.0,N
1526883135.4,286046998.6,N
1526883155.3,286047001.1,N
1526883175.1,286047001.0,N
1526883195.9,286047001.1,N
1526883215.7,286047000.6,N
1526883235.5,286047004.4,Y
1526883255.4,286047000.5,P
1526883275.2,286046999.7,N
1526883295.1,286047000.7,N
1526883296.0,286047000.7,N
1526883315.8,286046998.5,N
1526883335.6,286046998.1,N
1526883355.5,286047000.8,N
1526883375.3,286047001.2,N
1526883395.1,286047002.6,N
1526883415.9,286047000.6,N
1526883435.7,286046998.7,N
1526883455.6,286046999.5,N
1526883475.4,286047000.5,N
1526883495.2,286046999.5,N
1526883515.1,286046997.2,N
1526883516.0,286046997.2,N
1526883535.8,286046998.1,N
1526883555.6,286047000.9,N
1526883575.5,286046998.4,N
1526883595.3,286046999.0,N
1526883615.2,286046999.4,N
1526883635.9,286046996.6,N
1526883655.7,286046997.4,N
1526883675.6,286046998.8,N
1526883695.4,286046999.1,N
1526883715.3,286046999.4,N
1526883735.1,286046996.5,N
1526883736.0,286046996.5,N
1526883755.8,286046997.5,N
1526883775.7,286046995.2,N
1526883795.5,286046994.9,Y
1526883815.4,286046998.2,P
1526883835.2,286046998.1,P
1526883855.0,286047000.6,N
1526883855.9,286047000.6,N
1526883875.8,286047000.5,N
1526883895.6,286047002.2,N
1526883915.4,286047000.8,N
1526883935.3,286047001.2,N
1526883955.1,286047000.5,N
1526883975.9,286047000.9,N
1526883995.7,286046999.4,N
1526884015.5,286047001.1,N
1526884035.4,286046998.9,N
1526884055.2,286046999.3,N
1526884075.0,286046998.8,N
1526884075.9,286046998.8,N
1526884095.8,286046999.5,N
1526884115.6,286046996.9,N
1526884135.5,286046999.5,N
1526884155.3,286047001.1,N
1526884175.1,286047001.1,N
1526884195.9,286047003.5,N
1526884215.7,286047002.5,N
1526884235.5,286047000.3,N
1526884255.4,286046998.1,N
1526884275.2,286047000.3,N
1526884295.1,286047002.7,N
1526884296.0,286047002.7,N
1526884315.8,286046999.7,N
1526884335.6,286047000.5,N
1526884355.5,286047001.0,N
1526884375.3,286047000.9,N
1526884395.2,286046999.7,N
1526884415.9,286047000.6,N
1526884435.7,286047004.0,N
1526884455.6,286047001.3,N
1526884475.4,286047002.0,N
1526884495.2,286046999.7,N
1526884515.1,286047002.5,N
1526884516.0,286047002.5,N
1526884535.8,286047002.4,N
1526884555.7,286047002.7,N
1526884575.5,286047000.0,N
1526884595.3,286047000.8,N
1526884615.2,286047000.6,N
1526884635.0,286046998.1,N
1526884635.9,286046998.1,N
1526884655.8,286047000.0,N
1526884675.6,286046999.8,N
1526884695.4,286047001.6,N
1526884715.3,286047002.3,N
1526884735.1,286047000.5,N
1526884755.8,286047000.6,N
1526884775.7,286047000.2,N
1526884795.5,286046998.5,N
1526884815.4,286047001.8,N
1526884835.2,286047005.7,Y
1526884855.0,286047004.0,P
1526884855.9,286047004.0,N
1526884875.8,286047005.5,P
1526884895.6,286047001.7,N
1526884915.4,286047002.2,N
1526884935.3,286047004.4,N
1526884955.1,286047011.9,Y
1526884975.9,286046997.0,P
1526884995.7,286046996.8,N
1526885015.5,286046997.0,N
1526885035.4,286046999.4,N
1526885055.2,286046997.1,N
1526885075.0,286046999.5,N
1526885076.0,286046999.5,N
1526885095.8,286046999.1,N
1526885115.6,286046999.2,N
1526885135.5,286046996.6,N
1526885155.3,286046999.3,N
1526885175.1,286046996.7,N
1526885195.9,286046997.6,N
1526885215.7,286046997.2,N
1526885235.6,286046996.0,N
1526885255.4,286046995.7,N
1526885275.2,286046997.8,N
1526885295.1,286046998.1,N
1526885296.0,286046998.1,N
1526885315.8,286046998.7,N
1526885335.7,286047002.3,N
1526885355.5,286047001.8,N
1526885375.3,286047003.7,N
1526885395.2,286047003.8,N
1526885415.0,286047002.9,N
1526885415.9,286047002.9,N
1526885435.7,286047005.3,N
1526885455.6,286047003.8,N
1526885475.4,286047004.1,N
1526885495.3,286047003.8,N
1526885515.1,286047003.9,N
1526885516.0,286047003.9,N
1526885535.8,286047000.1,N
1526885555.7,286046999.7,N
1526885575.5,286047000.2,N
1526885595.3,286046999.8,N
1526885615.2,286047000.2,N
1526885635.0,286047002.0,N
1526885635.9,286047002.0,N
1526885655.8,286047001.0,N
1526885675.6,286047001.1,N
1526885695.4,286046998.7,N
1526885715.3,286046999.1,N
1526885735.1,286046999.0,N
1526885755.9,286046996.8,N
1526885775.7,286046998.0,N
1526885795.5,286046996.7,N
1526885815.4,286046998.4,N
1526885835.2,286046999.2,N
1526885855.0,286046998.1,N
1526885855.9,286046998.1,N
1526885875.8,286046998.8,N
1526885895.6,286046998.6,N
1526885915.5,286046997.1,N
1526885935.3,286046995.3,N
1526885955.1,286046996.9,N
1526885975.9,286046996.6,N
1526885995.7,286046996.6,N
